Погода в Костюковичи

Погода в Костюковичи : погода сейчас, прогноз погоды и архив. Всё, что Вы хотите узнать о погоде в Костюковичи!

Поиск расширенной информации на нашем сайте:

Другие новости

Новости СМИ2

Главная страница сайта

Новости сайта

03.07.2017

Напоминаем, что на нашем специализированном сайте Метеоцентр.Азия вы можете получить высокодетализированные автоматические прогнозы погоды по пунктам России, СНГ и мира в авиационном формате (включающие направление и скорость ветра, видимость, явления погоды, количество и форму облачности, нижнюю и верхнюю границу облачности).


Погода в Костюковичи - сегодня

Время (UTC), дата Ветер
(°,м/с) 
Видим.   Явления Облачность Т
(°С)
Тd
(°С)
f(%) Тe
(°С)
Pmin
(гПа)
dP
(гПа)
Po
(мм)
O2
(г/м3)
Тmin Tmax R s Состояние
почвы
09 20.09.18 230 (ЮЗ) 28000 м    ясно 
+23.2 +15.5 62 +33  1018.5  0.7  749  275           
12 20.09.18 250 (З) 22000 м    1/1 1000 м 
[Cu hum]
+25.9 +15.2 52 +35  1017.7  -0.6  749  273           
15 20.09.18 280 (З) 35000 м    ясно 
+25 +15.3 55 +34  1017.8  749  273           
18 20.09.18 тихо ()   4500 м  дымка  ясно 
+16.5 +15.6 94 +26  1018.9  0.5  749  281    +26.5       
21 20.09.18 200 (Ю) 1800 м  дымка  ясно 
+14.1 +13.6 97 +21  1019  -0.1  749  284           
00 21.09.18 тихо ()   0500 м  туман  ясно 
+12.8 +12.4 97 +17  1019.5  0.4  750  286           
03 21.09.18 210 (ЮЗ) 0500 м  туман  6/0 средняя 
[Ac trans]
+12.1 +11.7 97 +16  1020.1  0.5  750  287           
06 21.09.18 210 (ЮЗ) 12000 м  {туман}  ясно 
+15.2 +13.7 91 +23  1020.4  0.5  750  284  +11.2         
09 21.09.18 160 (Ю) 35000 м    ясно 
+24.4 +14 52 +31  1019.8  0.1  750  275           
12 21.09.18 220 (ЮЗ) 30000 м    1/1 1000 м 
[Cu hum]
+26.3 +12.5 42 +31  1019  -0.6  750  273           
15 21.09.18 210 (ЮЗ) 30000 м    ясно 
+24.7 +13.3 49 +31  1018.1  -1  749  274           
18 21.09.18 тихо ()   12000 м    ясно 
+15.6 +14.6 94 +24  1018.3  -0.5  749  282    +26.6       
21 21.09.18 тихо ()   1100 м  дымка  ясно 
+12.2 +11.5 95 +15  1017.9  -0.7  748  286           
00 22.09.18 тихо ()   1200 м  дымка  ясно 
+10.8 +10.4 97 +13  1017  -0.9  748  288           
03 22.09.18 170 (Ю) 23000 м    ясно 
+14.4 +11.3 82 +19  1015.5  -1.2  747  284           
09 22.09.18 160 (Ю) 35000 м    ясно 
+24.5 +11.2 43 +27  1012.2  -1.4  745  273           
12 22.09.18 200 (Ю) 7-12{11}  30000 м    4/0 средняя 
[Ac trans]
+26.5 +7.5 30 +27  1010.2  -1.8  744  272           
15 22.09.18 200 (Ю) 2{13}  24000 м    9/1 1000 м кучево-дожд., средняя 
[Cb cap|Ac As]
+22.7 +10.5 46 +25  1009.1  -1.4  743  274           
18 22.09.18 300 (СЗ) 5{13}  35000 м  {гроза}  10/10 750 м 
[Sc]
+14.7 +9.3 70 +14  1011.5  1.8  744  283    +26.9       
21 22.09.18 300 (СЗ) 5-10{12}  11000 м  дождь  10/10 800 м 
[Sc]
+8.9 +7.6 92 +7  1013.8  1.8  745  289         
00 23.09.18 230 (ЮЗ) 2{11}  18000 м  в посл. час дождь  10/10 1230 м 
[Sc]
+8.3 +7.7 96 +8  1014  0.1  745  290         
03 23.09.18 220 (ЮЗ) 20000 м  {дождь}  10/10 270 м 
[St]
+8.6 +8 96 +9  1012.9  -1  745  289      14     
06 23.09.18 230 (ЮЗ) 21000 м  {дождь}  9/9 720 м 
[Sc]
+10.2 +8.5 89 +10  1012.9  0.1  745  288  +8.2    14     
09 23.09.18 240 (ЮЗ) 35000 м    10/10 660 м 
[Sc]
+11.3 +8 80 +11  1013.7  0.9  745  287           
12 23.09.18 190 (Ю) 35000 м    8/8 1000 м 
[Sc]
+12.8 +7.7 71 +13  1013.6  745  286           
Время (UTC), дата Ветер
(°,м/с) 
Видим.   Явления Облачность Т
(°С)
Тd
(°С)
f(%) Тe
(°С)
Pmin
(гПа)
dP
(гПа)
Po
(мм)
O2
(г/м3)
Тmin Tmax R s Состояние
почвы

Для получения пояснительной информации подведите курсор к названию столбца.

ПОГОДА в Костюковичи - архив

Всё, что Вы хотите узнать о погоде в Костюковичи - удобно и подробно!

Выберите нужную дату (начиная с 1 января 2015* года) и нажмите кнопку "Найти".
Будут отображены архивные сводки погоды по пункту Костюковичи, начиная с указанной даты.


Отображать данные в формате CSV (для использования в таблицах Excel)


Внимание! Наш архив погоды предназначен исключительно для личного некоммерческого использования в познавательных целях. Если Вам необходимы официальные справки о состоянии погоды (для производственных, юридических, коммерческих и т.п. целей), обращайтесь в органы Росгидромета.

*Примечание: данная дата относится к архиву по метеостанциям СССР (Россия, СНГ, Балтия).
Архив по метеостанциям Зарубежной Европы и Азии (кроме Китая) хранится 10 дней, по другим регионам земного шара (Китай, Африка, Америка, Австралия, Океания) - 1 день.

Костюковичи - район местоположения метеостанции


Название, широта, долгота, высота метеостанции:
Костюковичи 53.3°ш. 32.1°д. 167 м над ур. моря [Беларусь]

Дополнительная информация

В oтличие oт бoльшинства пoгoдных сайтoв мы публикуем пoдрoбную метеoинфoрмацию в детальнoм прoфессиoнальнoм фoрмате.

Характеристики температуры и влажнoсти вoздуха измеряются на высoте 2 м в тени вдали oт зданий и деревьев.
Скoрoсть ветра измеряется на высoте 10 м (на урoвне рoста челoвека скoрoсть ветра ниже в 1.5-2 раза). Если метеoстанция нахoдится в гoрoде или в лесу, тo скoрoсть ветра занижена на 2-4 м/с пo сравнению с oткрытым местoм. Скoрoсть ветра над акватoриями крупных рек и oзёр, а также на вершинах хoлмoв на 2-5 м/с выше, чем в oбычных услoвиях.
Атмoсфернoе давление в разных тoчках местнoсти мoжет значительнo oтличаться oт давления на метеoстанции, в зависимoсти oт услoвий рельефа (при пoдъёме на 10 м давление пoнижается примернo на 1 мм рт.ст.).